Location: Maccacari
(45.1333°N, 11.1333°E)
Time: 08:16:05
(UTC+00:00)

CZ-2C R/B - Pass Details

Date: 18 September 2020
Orbit: 785 x 870 km, 98.2° (Epoch: 29 October)

Event Time Altitude Azimuth Distance (km) Brightness Sun altitude
Rises 17:37:14 0° 29° (NNE) 3,420 5.6 -3.9°
Reaches altitude 10° 17:40:32 10° 50° (NE) 2,493 4.8 -4.4°
Maximum altitude 17:44:01 17° 89° (E) 2,058 4.1 -5.0°
Drops below altitude 10° 17:47:30 10° 128° (SE) 2,504 4.6 -5.7°
Sets 17:50:48 0° 148° (SSE) 3,442 5.5 -6.2°
